• In Hungary
  • List of Countries
  • For 7 days
  • Water Temperature
  • Satellite Maps
  • Weather Map
  • News
  • Weather Widgets
  • user-avatar
    Login

    Hourly Weather Polomia

    Today, 18 October, Wednesday

    Time Temperature Precipitation Wind Pressure Humidity
    00:00 +14°C° 0 mm 2 mps 743 mmHg 75%
    01:00 +14°C° 0 mm 2 mps 743 mmHg 77%
    02:00 +14°C° 0 mm 2 mps 742 mmHg 78%
    03:00 +14°C° 0 mm 2 mps 742 mmHg 79%
    04:00 +13°C° 0 mm 2 mps 742 mmHg 79%
    05:00 +13°C° 0 mm 2 mps 742 mmHg 80%
    06:00 +13°C° 0 mm 2 mps 741 mmHg 80%
    07:00 +13°C° 0 mm 2 mps 741 mmHg 81%
    08:00 +15°C° 0 mm 2 mps 741 mmHg 73%
    09:00 +18°C° 0 mm 2 mps 741 mmHg 66%
    10:00 +20°C° 0 mm 2 mps 741 mmHg 58%
    11:00 +21°C° 0 mm 2 mps 741 mmHg 55%
    12:00 +22°C° 0 mm 3 mps 740 mmHg 51%
    13:00 +24°C° 0 mm 3 mps 740 mmHg 48%
    14:00 +23°C° 0 mm 2 mps 740 mmHg 52%
    15:00 +21°C° 0 mm 2 mps 739 mmHg 56%
    16:00 +21°C° 0 mm 1 mps 739 mmHg 61%
    17:00 +19°C° 0 mm 1 mps 739 mmHg 65%
    18:00 +18°C° 0 mm 1 mps 739 mmHg 70%
    19:00 +16°C° 0 mm 1 mps 739 mmHg 74%
    20:00 +16°C° 0 mm 1 mps 739 mmHg 76%
    21:00 +15°C° 0 mm 1 mps 739 mmHg 78%
    22:00 +15°C° 0 mm 1 mps 739 mmHg 80%
    23:00 +14°C° 0 mm 1 mps 739 mmHg 81%

    Tomorrow, 19 October, Thursday

    Time Temperature Precipitation Wind Pressure Humidity
    00:00 +14°C° 0 mm 1 mps 738 mmHg 82%
    01:00 +14°C° 0 mm 1 mps 738 mmHg 83%
    02:00 +13°C° 0 mm 1 mps 738 mmHg 84%
    03:00 +13°C° 0 mm 1 mps 738 mmHg 85%
    04:00 +13°C° 0 mm 1 mps 738 mmHg 86%
    05:00 +12°C° 0 mm 1 mps 738 mmHg 86%
    06:00 +12°C° 0 mm 1 mps 738 mmHg 87%
    07:00 +12°C° 0 mm 1 mps 738 mmHg 87%
    08:00 +14°C° 0 mm 1 mps 738 mmHg 80%
    09:00 +15°C° 0 mm 1 mps 739 mmHg 74%
    10:00 +18°C° 0 mm 1 mps 739 mmHg 67%
    11:00 +19°C° 0 mm 1 mps 739 mmHg 64%
    12:00 +20°C° 0 mm 1 mps 739 mmHg 61%
    13:00 +21°C° 0 mm 1 mps 739 mmHg 58%
    14:00 +20°C° 0 mm 1 mps 739 mmHg 61%
    15:00 +19°C° 0 mm 1 mps 739 mmHg 64%
    16:00 +19°C° 0 mm 1 mps 738 mmHg 68%
    17:00 +16°C° 0 mm 0 mps 739 mmHg 72%
    18:00 +14°C° 0 mm 0 mps 739 mmHg 76%
    19:00 +13°C° 0 mm 0 mps 739 mmHg 81%
    20:00 +13°C° 0 mm 0 mps 739 mmHg 82%
    21:00 +12°C° 0 mm 0 mps 739 mmHg 83%
    22:00 +12°C° 0 mm 0 mps 740 mmHg 85%
    23:00 +12°C° 0 mm 0 mps 740 mmHg 86%

    Day after tomorrow, 20 October, Friday

    Time Temperature Precipitation Wind Pressure Humidity
    00:00 +12°C° 0 mm 0 mps 740 mmHg 87%
    01:00 +11°C° 0 mm 0 mps 740 mmHg 88%
    02:00 +11°C° 0 mm 0 mps 740 mmHg 88%
    03:00 +11°C° 0 mm 0 mps 740 mmHg 88%
    04:00 +10°C° 0 mm 0 mps 740 mmHg 89%
    05:00 +10°C° 0 mm 0 mps 740 mmHg 89%
    06:00 +10°C° 0 mm 0 mps 740 mmHg 89%
    07:00 +10°C° 0 mm 0 mps 740 mmHg 89%
    08:00 +13°C° 0 mm 1 mps 741 mmHg 82%
    09:00 +15°C° 0 mm 1 mps 741 mmHg 76%
    10:00 +18°C° 0 mm 1 mps 741 mmHg 69%
    11:00 +19°C° 0 mm 1 mps 741 mmHg 65%
    12:00 +20°C° 0 mm 1 mps 741 mmHg 61%
    13:00 +20°C° 0 mm 1 mps 741 mmHg 57%
    14:00 +20°C° 0 mm 1 mps 741 mmHg 61%
    15:00 +19°C° 0 mm 1 mps 741 mmHg 64%
    16:00 +18°C° 0 mm 1 mps 741 mmHg 68%
    17:00 +16°C° 0 mm 1 mps 741 mmHg 73%
    18:00 +15°C° 0 mm 1 mps 741 mmHg 79%
    19:00 +14°C° 0 mm 1 mps 741 mmHg 84%
    20:00 +13°C° 0 mm 1 mps 742 mmHg 86%
    21:00 +13°C° 0 mm 1 mps 742 mmHg 87%
    22:00 +13°C° 0 mm 1 mps 742 mmHg 89%
    23:00 +12°C° 0 mm 1 mps 742 mmHg 89%

    21 October, Saturday

    Time Temperature Precipitation Wind Pressure Humidity
    00:00 +12°C° 0 mm 1 mps 742 mmHg 90%
    01:00 +12°C° 0 mm 1 mps 742 mmHg 90%
    02:00 +12°C° 0 mm 1 mps 742 mmHg 90%
    03:00 +11°C° 0 mm 1 mps 742 mmHg 90%
    04:00 +11°C° 0 mm 1 mps 742 mmHg 89%
    05:00 +11°C° 0 mm 1 mps 742 mmHg 89%
    06:00 +11°C° 0 mm 1 mps 742 mmHg 88%
    07:00 +11°C° 0 mm 1 mps 742 mmHg 87%
    08:00 +13°C° 0 mm 1 mps 742 mmHg 80%
    09:00 +15°C° 0 mm 1 mps 742 mmHg 72%
    10:00 +18°C° 0 mm 1 mps 742 mmHg 64%
    11:00 +19°C° 0 mm 1 mps 742 mmHg 61%
    12:00 +19°C° 0 mm 1 mps 742 mmHg 57%
    13:00 +20°C° 0 mm 1 mps 741 mmHg 53%
    14:00 +20°C° 0 mm 1 mps 741 mmHg 57%
    15:00 +19°C° 0 mm 1 mps 741 mmHg 61%
    16:00 +18°C° 0 mm 1 mps 741 mmHg 65%
    17:00 +16°C° 0 mm 1 mps 741 mmHg 69%
    18:00 +15°C° 0 mm 1 mps 741 mmHg 74%
    19:00 +14°C° 0 mm 2 mps 741 mmHg 79%
    20:00 +13°C° 0 mm 2 mps 741 mmHg 81%
    21:00 +13°C° 0 mm 2 mps 741 mmHg 82%
    22:00 +12°C° 0 mm 2 mps 741 mmHg 84%
    23:00 +12°C° 0 mm 2 mps 741 mmHg 85%

    22 October, Sunday

    Time Temperature Precipitation Wind Pressure Humidity
    00:00 +12°C° 0 mm 2 mps 741 mmHg 86%
    01:00 +12°C° 0 mm 2 mps 741 mmHg 86%
    02:00 +12°C° 0 mm 2 mps 740 mmHg 87%
    03:00 +10°C° 0 mm 2 mps 740 mmHg 87%
    04:00 +10°C° 0 mm 2 mps 740 mmHg 87%
    05:00 +10°C° 0 mm 2 mps 740 mmHg 86%
    06:00 +12°C° 0 mm 2 mps 739 mmHg 85%
    07:00 +12°C° 0 mm 2 mps 739 mmHg 84%
    08:00 +13°C° 0 mm 2 mps 739 mmHg 79%
    09:00 +14°C° 0 mm 2 mps 739 mmHg 74%
    10:00 +16°C° 0 mm 2 mps 739 mmHg 68%
    11:00 +16°C° 0.1 mm 2 mps 739 mmHg 69%
    12:00 +16°C° 0.1 mm 2 mps 739 mmHg 69%
    13:00 +16°C° 0.1 mm 2 mps 739 mmHg 69%
    14:00 +16°C° 0.2 mm 2 mps 738 mmHg 74%
    15:00 +15°C° 0.2 mm 2 mps 738 mmHg 79%
    16:00 +14°C° 0.2 mm 1 mps 738 mmHg 84%
    17:00 +14°C° 0.3 mm 1 mps 738 mmHg 87%
    18:00 +13°C° 0.3 mm 2 mps 738 mmHg 89%
    19:00 +13°C° 0.3 mm 2 mps 738 mmHg 92%
    20:00 +13°C° 0.2 mm 2 mps 738 mmHg 91%
    21:00 +11°C° 0.2 mm 3 mps 738 mmHg 91%
    22:00 +11°C° 0.2 mm 3 mps 738 mmHg 90%
    23:00 +11°C° 0.2 mm 3 mps 738 mmHg 90%

    23 October, Monday

    Time Temperature Precipitation Wind Pressure Humidity
    00:00 +11°C° 0.2 mm 3 mps 738 mmHg 90%
    01:00 +11°C° 0.2 mm 3 mps 738 mmHg 89%
    02:00 +10°C° 0.2 mm 3 mps 738 mmHg 90%
    03:00 +10°C° 0.2 mm 4 mps 738 mmHg 90%
    04:00 +10°C° 0.2 mm 4 mps 738 mmHg 90%
    05:00 +8°C° 0.4 mm 4 mps 739 mmHg 90%
    06:00 +8°C° 0.4 mm 4 mps 739 mmHg 90%
    07:00 +8°C° 0.4 mm 4 mps 739 mmHg 90%
    08:00 +8°C° 0.4 mm 4 mps 739 mmHg 89%
    09:00 +8°C° 0.4 mm 4 mps 740 mmHg 88%
    10:00 +8°C° 0.4 mm 4 mps 740 mmHg 87%
    11:00 +8°C° 0.3 mm 4 mps 740 mmHg 87%
    12:00 +8°C° 0.3 mm 4 mps 740 mmHg 87%
    13:00 +8°C° 0.3 mm 4 mps 741 mmHg 86%
    14:00 +8°C° 0.3 mm 4 mps 741 mmHg 87%
    15:00 +8°C° 0.3 mm 4 mps 741 mmHg 87%
    16:00 +8°C° 0.3 mm 4 mps 742 mmHg 87%
    17:00 +8°C° 0.2 mm 4 mps 742 mmHg 88%
    18:00 +9°C° 0.2 mm 3 mps 742 mmHg 89%
    19:00 +9°C° 0.2 mm 3 mps 743 mmHg 90%
    20:00 +9°C° 0.3 mm 3 mps 743 mmHg 90%
    21:00 +9°C° 0.3 mm 3 mps 743 mmHg 91%
    22:00 +8°C° 0.3 mm 4 mps 744 mmHg 91%
    23:00 +9°C° 0.3 mm 3 mps 744 mmHg 91%
    Show more